EN

Hourly Weather Abrego

Today, 4 December, Friday

Time Temperature Precipitation Wind Pressure Humidity
00:00 +17°C° 0 mm 2 mps 644 mmHg 92%
01:00 +17°C° 0 mm 2 mps 644 mmHg 92%
02:00 +16°C° 0 mm 1 mps 644 mmHg 92%
03:00 +16°C° 0 mm 1 mps 644 mmHg 91%
04:00 +16°C° 0 mm 1 mps 644 mmHg 91%
05:00 +18°C° 0 mm 1 mps 644 mmHg 90%
06:00 +17°C° 0 mm 2 mps 645 mmHg 89%
07:00 +17°C° 0 mm 2 mps 645 mmHg 88%
08:00 +19°C° 0 mm 2 mps 646 mmHg 82%
09:00 +21°C° 0 mm 2 mps 646 mmHg 76%
10:00 +23°C° 0 mm 2 mps 647 mmHg 69%
11:00 +24°C° 0 mm 2 mps 646 mmHg 67%
12:00 +25°C° 0 mm 2 mps 646 mmHg 66%
13:00 +25°C° 0 mm 2 mps 645 mmHg 64%
14:00 +25°C° 0 mm 2 mps 645 mmHg 68%
15:00 +24°C° 0 mm 2 mps 644 mmHg 73%
16:00 +23°C° 0 mm 2 mps 643 mmHg 77%
17:00 +21°C° 0.1 mm 2 mps 644 mmHg 82%
18:00 +20°C° 0.1 mm 2 mps 644 mmHg 87%
19:00 +18°C° 0.1 mm 2 mps 644 mmHg 93%
20:00 +18°C° 0 mm 2 mps 644 mmHg 92%
21:00 +19°C° 0 mm 1 mps 645 mmHg 91%
22:00 +19°C° 0 mm 1 mps 645 mmHg 90%
23:00 +19°C° 0 mm 1 mps 645 mmHg 90%

Tomorrow, 5 December, Saturday

Time Temperature Precipitation Wind Pressure Humidity
00:00 +18°C° 0 mm 1 mps 645 mmHg 90%
01:00 +18°C° 0 mm 1 mps 644 mmHg 90%
02:00 +16°C° 0 mm 1 mps 644 mmHg 89%
03:00 +16°C° 0 mm 1 mps 644 mmHg 88%
04:00 +16°C° 0 mm 1 mps 644 mmHg 88%
05:00 +16°C° 0 mm 1 mps 644 mmHg 87%
06:00 +18°C° 0 mm 1 mps 645 mmHg 86%
07:00 +18°C° 0 mm 1 mps 646 mmHg 85%
08:00 +20°C° 0 mm 1 mps 646 mmHg 78%
09:00 +22°C° 0 mm 1 mps 647 mmHg 71%
10:00 +24°C° 0 mm 1 mps 648 mmHg 64%
11:00 +25°C° 0 mm 2 mps 647 mmHg 63%
12:00 +25°C° 0 mm 2 mps 646 mmHg 63%
13:00 +26°C° 0 mm 2 mps 646 mmHg 62%
14:00 +25°C° 0.2 mm 2 mps 645 mmHg 67%
15:00 +24°C° 0.2 mm 2 mps 645 mmHg 73%
16:00 +23°C° 0.2 mm 2 mps 644 mmHg 78%
17:00 +22°C° 0.1 mm 1 mps 644 mmHg 83%
18:00 +20°C° 0.1 mm 1 mps 644 mmHg 88%
19:00 +19°C° 0.1 mm 1 mps 644 mmHg 93%
20:00 +19°C° 0 mm 1 mps 644 mmHg 93%
21:00 +18°C° 0 mm 1 mps 645 mmHg 92%
22:00 +18°C° 0 mm 1 mps 645 mmHg 92%
23:00 +18°C° 0 mm 1 mps 645 mmHg 92%

Day after tomorrow, 6 December, Sunday

Time Temperature Precipitation Wind Pressure Humidity
00:00 +18°C° 0 mm 1 mps 645 mmHg 92%
01:00 +18°C° 0 mm 1 mps 644 mmHg 92%
02:00 +18°C° 0 mm 1 mps 644 mmHg 91%
03:00 +18°C° 0 mm 1 mps 644 mmHg 91%
04:00 +18°C° 0 mm 1 mps 644 mmHg 91%
05:00 +18°C° 0 mm 1 mps 644 mmHg 90%
06:00 +19°C° 0 mm 1 mps 645 mmHg 89%
07:00 +19°C° 0 mm 1 mps 645 mmHg 88%
08:00 +21°C° 0 mm 1 mps 646 mmHg 82%
09:00 +22°C° 0 mm 1 mps 646 mmHg 76%
10:00 +24°C° 0 mm 1 mps 647 mmHg 70%
11:00 +24°C° 0.4 mm 1 mps 646 mmHg 73%
12:00 +24°C° 0.4 mm 1 mps 645 mmHg 76%
13:00 +24°C° 0.4 mm 1 mps 644 mmHg 79%
14:00 +24°C° 0.8 mm 1 mps 644 mmHg 82%
15:00 +23°C° 0.8 mm 1 mps 644 mmHg 85%
16:00 +23°C° 0.8 mm 1 mps 643 mmHg 88%
17:00 +22°C° 0.4 mm 1 mps 643 mmHg 90%
18:00 +20°C° 0.4 mm 1 mps 644 mmHg 92%
19:00 +19°C° 0.4 mm 1 mps 644 mmHg 95%
20:00 +19°C° 0 mm 1 mps 644 mmHg 94%
21:00 +19°C° 0 mm 1 mps 644 mmHg 94%
22:00 +19°C° 0 mm 1 mps 645 mmHg 93%
23:00 +19°C° 0.1 mm 1 mps 644 mmHg 93%

7 December, Monday

Time Temperature Precipitation Wind Pressure Humidity
00:00 +18°C° 0.1 mm 1 mps 644 mmHg 93%
01:00 +18°C° 0.1 mm 1 mps 644 mmHg 93%
02:00 +18°C° 0.2 mm 1 mps 644 mmHg 93%
03:00 +18°C° 0.2 mm 1 mps 643 mmHg 92%
04:00 +18°C° 0.2 mm 1 mps 643 mmHg 92%
05:00 +19°C° 0.1 mm 1 mps 644 mmHg 91%
06:00 +19°C° 0.1 mm 1 mps 644 mmHg 90%
07:00 +19°C° 0.1 mm 1 mps 645 mmHg 89%
08:00 +21°C° 0 mm 1 mps 645 mmHg 84%
09:00 +22°C° 0 mm 1 mps 646 mmHg 79%
10:00 +24°C° 0 mm 1 mps 646 mmHg 74%
11:00 +24°C° 0.4 mm 1 mps 646 mmHg 77%
12:00 +24°C° 0.4 mm 1 mps 645 mmHg 80%
13:00 +23°C° 0.4 mm 1 mps 644 mmHg 83%
14:00 +23°C° 0.7 mm 1 mps 644 mmHg 85%
15:00 +23°C° 0.7 mm 1 mps 643 mmHg 86%
16:00 +23°C° 0.7 mm 1 mps 643 mmHg 88%
17:00 +22°C° 0.6 mm 1 mps 643 mmHg 90%
18:00 +21°C° 0.6 mm 1 mps 643 mmHg 93%
19:00 +20°C° 0.6 mm 1 mps 644 mmHg 95%
20:00 +19°C° 0.3 mm 1 mps 644 mmHg 94%
21:00 +19°C° 0.3 mm 1 mps 644 mmHg 94%
22:00 +19°C° 0.3 mm 1 mps 645 mmHg 93%
23:00 +19°C° 0.2 mm 1 mps 645 mmHg 93%

8 December, Tuesday

Time Temperature Precipitation Wind Pressure Humidity
00:00 +18°C° 0.2 mm 1 mps 644 mmHg 93%
01:00 +18°C° 0.2 mm 1 mps 644 mmHg 93%
02:00 +18°C° 0.2 mm 1 mps 644 mmHg 92%
03:00 +18°C° 0.2 mm 1 mps 644 mmHg 92%
04:00 +18°C° 0.2 mm 1 mps 644 mmHg 91%
05:00 +19°C° 0 mm 1 mps 644 mmHg 90%
06:00 +19°C° 0 mm 1 mps 645 mmHg 90%
07:00 +20°C° 0 mm 1 mps 645 mmHg 89%
08:00 +21°C° 0 mm 1 mps 646 mmHg 84%
09:00 +22°C° 0 mm 1 mps 647 mmHg 78%
10:00 +24°C° 0 mm 1 mps 647 mmHg 73%
11:00 +24°C° 0.3 mm 1 mps 647 mmHg 75%
12:00 +24°C° 0.3 mm 1 mps 646 mmHg 77%
13:00 +24°C° 0.3 mm 1 mps 645 mmHg 79%
14:00 +24°C° 0.5 mm 1 mps 645 mmHg 80%
15:00 +24°C° 0.5 mm 1 mps 644 mmHg 82%
16:00 +23°C° 0.5 mm 1 mps 644 mmHg 84%
17:00 +22°C° 0.6 mm 1 mps 644 mmHg 87%
18:00 +21°C° 0.6 mm 1 mps 644 mmHg 91%
19:00 +20°C° 0.6 mm 1 mps 644 mmHg 95%
20:00 +19°C° 0.1 mm 1 mps 644 mmHg 94%
21:00 +19°C° 0.1 mm 1 mps 645 mmHg 93%
22:00 +19°C° 0.1 mm 1 mps 645 mmHg 93%
23:00 +19°C° 0.2 mm 1 mps 645 mmHg 92%

9 December, Wednesday

Time Temperature Precipitation Wind Pressure Humidity
00:00 +19°C° 0.2 mm 1 mps 645 mmHg 92%
01:00 +19°C° 0.2 mm 1 mps 645 mmHg 92%
02:00 +18°C° 0.1 mm 1 mps 645 mmHg 92%
03:00 +18°C° 0.1 mm 1 mps 644 mmHg 92%
04:00 +18°C° 0.1 mm 1 mps 644 mmHg 92%
05:00 +18°C° 0 mm 1 mps 645 mmHg 91%
06:00 +19°C° 0 mm 1 mps 645 mmHg 91%
07:00 +19°C° 0 mm 1 mps 646 mmHg 90%
08:00 +21°C° 0 mm 1 mps 647 mmHg 84%
09:00 +22°C° 0 mm 1 mps 647 mmHg 77%
10:00 +24°C° 0 mm 1 mps 648 mmHg 71%
11:00 +24°C° 0.2 mm 1 mps 647 mmHg 72%
12:00 +25°C° 0.2 mm 2 mps 647 mmHg 73%
13:00 +25°C° 0.2 mm 2 mps 646 mmHg 74%
14:00 +24°C° 0.4 mm 2 mps 645 mmHg 77%
15:00 +24°C° 0.4 mm 2 mps 645 mmHg 80%
16:00 +23°C° 0.4 mm 2 mps 644 mmHg 83%
17:00 +21°C° 0.5 mm 2 mps 644 mmHg 87%
18:00 +21°C° 0.5 mm 1 mps 644 mmHg 91%
19:00 +20°C° 0.5 mm 1 mps 644 mmHg 95%
20:00 +19°C° 0.2 mm 1 mps 645 mmHg 94%
21:00 +18°C° 0.2 mm 2 mps 645 mmHg 93%
22:00 +18°C° 0.2 mm 2 mps 645 mmHg 93%
23:00 +17°C° 0.1 mm 2 mps 645 mmHg 92%
Show more